Location: Newark
(50.1751°N, 5.6239°W)
Time: 15:36:45
(UTC+00:00)

Nauka - Pass Details

Date: 23 September 2021
Orbit: 417 x 423 km, 51.6° (Epoch: 24 October)

Event Time Altitude Azimuth Distance (km) Brightness Sun altitude
Rises 19:38:11 0° 262° (W) 2,362 ? -13.5°
Reaches altitude 10° 19:40:17 10° 264° (W) 1,500 ? -13.8°
Maximum altitude 19:43:39 74° 351° (N) 441 ? -14.3°
Enters shadow 19:45:26 26° 72° (ENE) 877 ? -14.6°
